OSNSAT

Last updated on Fri Jan 12 2018 00:15:07 GMT+0000 (Coordinated Universal Time)

1 41939U 98067KZ 18011.28402027 .11925055 12489-4 54124-3 0 9997 2 41939 51.6147 38.9582 0001091 231.1728 128.9202 16.43639489 55773

Satellite not in orbit